This demonstration page uses our WeatherBlox Daily Observations layout. Learn more.

Left ArrowRight Arrow

Hourly Observations for January 14, 2022

Temp ( °F °C ) Dew Point ( °F °C ) Humidity (%) Winds ( mph kmh ) Pressure ( in mb ) Visibility ( mi km ) Precip ( " mm )
12:53 am 00:53 Cloudy 32 0 29 -1.7 88 88 WNW 14 22 30.32 1027 10 16 0.00 0.00
1:21 am 01:21 Cloudy 32 0 29 -1.7 88 88 W 13 20 30.37 1028 10 16 0.00 0.00
1:53 am 01:53 Cloudy 32 0 30 -1.1 92 92 W 10 17 30.35 1028 10 16 0.00 0.00
2:53 am 02:53 Cloudy 33 0.6 30 -1.1 89 89 WSW 6 9 30.38 1029 10 16 0.00 0.00
3:53 am 03:53 Cloudy 33 0.6 30 -1.1 89 89 WNW 9 15 30.40 1030 10 16 0.00 0.00
4:02 am 04:02 Cloudy 33 0.6 31 -0.6 92 92 WNW 10 17 30.44 1031 10 16 0.00 0.00
4:53 am 04:53 Mostly Cloudy 32 0 30 -1.1 92 92 W 8 13 30.42 1030 8 13 0.00 0.00
5:53 am 05:53 Mostly Clear 31 -0.6 30 -1.1 96 96 W 7 11 30.46 1032 7 11 0.00 0.00
6:53 am 06:53 Mostly Clear 29 -1.7 28 -2.2 96 96 W 6 9 30.49 1032 7 11 0.00 0.00
7:38 am 07:38 Cloudy with Mist and Fog 31 -0.6 30 -1.1 96 96 W 9 15 30.54 1034 6 10 0.00 0.00
7:50 am 07:50 Mostly Cloudy 30 -1 28 -2 93 93 WNW 12 19 30.54 1034 8 13 0.00 0.00
7:53 am 07:53 Mostly Cloudy 31 -0.6 29 -1.7 92 92 WNW 12 19 30.51 1033 8 13 0.00 0.00
8:53 am 08:53 Sunny 30 -1.1 27 -2.8 88 88 W 8 13 30.53 1034 10 16 0.00 0.00
9:53 am 09:53 Mostly Sunny 31 -0.6 28 -2.2 89 89 W 10 17 30.55 1035 10 16 0.00 0.00
10:53 am 10:53 Mostly Cloudy 33 0.6 27 -2.8 78 78 WNW 10 17 30.55 1035 10 16 0.00 0.00
11:53 am 11:53 Mostly Sunny 36 2.2 28 -2.2 73 73 WNW 8 13 30.54 1034 10 16 0.00 0.00
12:53 pm 12:53 Sunny 37 2.8 27 -2.8 67 67 W 7 11 30.53 1034 10 16 0.00 0.00
1:53 pm 13:53 Sunny 37 2.8 24 -4.4 59 59 NW 5 7 30.52 1034 10 16 0.00 0.00
2:53 pm 14:53 Mostly Sunny 37 2.8 25 -3.9 62 62 SW 3 6 30.51 1033 10 16 0.00 0.00
3:53 pm 15:53 Sunny 35 1.7 27 -2.8 72 72 SSW 3 6 30.51 1033 10 16 0.00 0.00
4:53 pm 16:53 Clear 33 0.6 25 -3.9 72 72 SSE 5 7 30.49 1033 10 16 0.00 0.00
5:53 pm 17:53 Clear 27 -2.8 25 -3.9 92 92 SSE 6 9 30.48 1032 10 16 0.00 0.00
6:53 pm 18:53 Clear 28 -2.2 24 -4.4 85 85 Calm 30.46 1032 10 16 0.00 0.00
7:53 pm 19:53 Clear 28 -2.2 24 -4.4 85 85 E 3 6 30.42 1030 10 16 0.00 0.00
8:53 pm 20:53 Clear 26 -3.3 23 -5 88 88 VRB 3 6 30.40 1029 10 16 0.00 0.00
9:53 pm 21:53 Clear 25 -3.9 23 -5 92 92 Calm 30.35 1028 10 16 0.00 0.00
10:53 pm 22:53 Clear 25 -3.9 22 -5.6 88 88 NNE 3 6 30.31 1027 10 16 0.00 0.00
11:53 pm 23:53 Clear 23 -5 21 -6.1 92 92 Calm 30.29 1026 10 16 0.00 0.00

Powered by AerisWeather